Regional Weather Roundup
Issued by NWS Green Bay, WI

Home | Current Version | Previous Version | Graphics & Text | Print | Product List | Glossary Off
Versions: 1 2 3 4 5 6 7 8 9 10 11 12 13 14 15 16 17 18 19 20 21 22 23 24 25 26 27 28 29 30 31 32 33 34 35 36 37 38 39 40 41 42 43 44 45 46 47 48 49 50

000
ASUS43 KGRB 252110
RWRGRB

NORTH-CENTRAL AND NORTHEAST WISCONSIN REGIONAL WEATHER ROUNDUP
NATIONAL WEATHER SERVICE GREEN BAY WI
300 PM CST TUE NOV 25 2014

WIZ005-009-010>012-018-019-252200-
NORTH CENTRAL WISCONSIN

CITY           SKY/WX    TMP DP  RH WIND       PRES   REMARKS
IRONWOOD       CLEAR     19  12  73 SW8       29.95R WCI   9
MANITOWISH WTR SUNNY     19  10  69 SW3       29.95S
ARBOR VITAE    SUNNY     20  12  71 SW5       29.96S
EAGLE RIVER    CLEAR     19   8  63 SW6       29.95S
LAND O LAKES   CLEAR     21  11  65 SW3       29.96R
RHINELANDER    PTSUNNY   19  11  70 W9        29.97S WCI   8
PHILLIPS       MOSUNNY   19  11  73 SW6       29.98S
ANTIGO         PTSUNNY   18  12  79 W8        29.99R WCI   7
TOMAHAWK       SUNNY     18  11  74 CALM      30.00S
MERRILL        SUNNY     21  13  69 SW6       30.00S
$$

WIZ013-073-252200-
NORTHEAST WISCONSIN

CITY           SKY/WX    TMP DP  RH WIND       PRES   REMARKS
IRON MOUNTAIN  MOCLDY    24  11  57 W9        29.97R
MARINETTE      CLOUDY    27  14  59 NW5       30.02R
OCONTO         CLOUDY    24  18  78 W7        30.05R
$$

WIZ017-030-035>037-045-252200-
CENTRAL WISCONSIN

CITY           SKY/WX    TMP DP  RH WIND       PRES   REMARKS
MEDFORD        SUNNY     19  11  69 SW3       29.99S
WAUSAU         MOSUNNY   17  11  77 W6        30.02R WCI   9
MOSINEE        PTSUNNY   19  16  86 W6        30.03R
MARSHFIELD     SUNNY     21  12  68 W6        30.03R
WISC RAPIDS    PTSUNNY   22  13  68 VRB5      30.07R
STEVENS POINT  MOSUNNY   19  13  77 W7        30.04S HAZE    WCI  10
WAUPACA        MOSUNNY   25  16  68 W6        30.06R
SHAWANO        CLOUDY    25  17  72 W7        30.05R
CLINTONVILLE   CLOUDY    23  16  74 W8        30.05R
$$

WIZ038-039-048-051-252200-
FOX VALLEY

CITY           SKY/WX    TMP DP  RH WIND       PRES   REMARKS
NWS GREEN BAY  CLOUDY    24  16  71 W13       30.06R
APPLETON       CLOUDY    21  16  79 W14       30.06R WCI   8
OSHKOSH        CLOUDY    22  15  75 VRB5      30.07R
FOND DU LAC    CLOUDY    22  15  75 W8        30.08R
$$

WIZ022-050-052-252200-
EAST CENTRAL WISCONSIN

CITY           SKY/WX    TMP DP  RH WIND       PRES   REMARKS
STURGEON BAY   CLOUDY    25  16  68 W8        30.03R
MANITOWOC      CLOUDY    24  18  77 W12       30.07R
SHEBOYGAN      CLOUDY    22  15  75 W15       30.07R WCI   9
$$

LMZ563-521-522-541>543-252200-
LAKESHORE

STATION/POSITION TIME  TEMP    WIND        PRES    VSBY  WAVE
                       AIR SEA DIR/SP/G                  HT/PER
                 (UTC) (F)     (DEG/KT/KT) (MB)    (MI)  (FT/S)
SHEBOYGAN LKSHOR 2100   23 35  240/  9/ 12 1019.9R
KEWAUNEE LKSHORE 2100   23     270/  9/ 13 1016.5R
NORTHPORT PIER   2100   27     290/  6/ 13 1016.9R
N MID LAKE BUOY  2100   28 42  280/ 12/ 14 1016.8R         3/ 4
SISTER BAY LKSHO 2000          360/ 13/ 15   N/A
CHAMBERS ISLAND  2100   27     240/  3/  8 1016.6R
MENOMINEE LKSHOR 2100   27     260/  8/ 11 1017.2R
$$



USA.gov is the U.S. government's official web portal to all federal, state and local government web resources and services.